#timestamp,LO_Frequency,Hit,StdDev 
1517594415.1,286047012.3,N
1517594435.9,286047011.5,N
1517594455.7,286047013.5,Y
1517594475.6,286047000.1,P
1517594495.4,286047001.8,N
1517594515.2,286047003.0,N
1517594535.1,286047005.1,N
1517594536.0,286047005.1,N
1517594555.8,286047005.3,N
1517594575.7,286047007.6,N
1517594595.5,286047007.0,N
1517594615.3,286047007.5,N
1517594635.2,286047004.0,N
1517594655.0,286047002.1,N
1517594655.9,286047002.1,N
1517594675.8,286047001.1,N
1517594695.6,286046996.6,N
1517594715.4,286046997.3,N
1517594735.3,286046998.9,N
1517594755.1,286046997.4,N
1517594775.8,286046996.0,N
1517594795.7,286046994.4,N
1517594815.5,286046993.8,N
1517594835.4,286046996.2,N
1517594855.1,286046995.0,N
1517594875.9,286046996.9,N
1517594895.8,286046998.3,N
1517594915.6,286047004.4,N
1517594935.5,286047007.5,N
1517594955.3,286047006.0,N
1517594975.1,286047002.3,N
1517594995.9,286046999.1,N
1517595015.7,286046995.2,N
1517595035.6,286046994.7,N
1517595055.4,286046991.9,N
1517595075.2,286046992.7,N
1517595095.1,286046991.0,N
1517595096.0,286046991.0,N
1517595115.8,286046988.5,N
1517595135.7,286046990.8,N
1517595155.5,286046989.6,N
1517595175.3,286046987.9,N
1517595195.2,286046985.4,N
1517595215.0,286046984.2,N
1517595215.9,286046984.2,N
1517595235.7,286046985.2,N
1517595255.6,286046982.1,N
1517595275.4,286046986.8,N
1517595295.3,286046986.6,N
1517595315.1,286046985.7,N
1517595316.0,286046985.7,N
1517595335.8,286046983.9,N
1517595355.7,286046986.0,N
1517595375.5,286046983.7,N
1517595395.4,286046986.0,N
1517595415.2,286046985.6,N
1517595435.0,286046986.7,N
1517595435.9,286046986.7,N
1517595455.8,286046986.2,N
1517595475.6,286046986.7,N
1517595495.4,286046984.9,Y
1517595515.3,286046998.0,P
1517595535.1,286046999.2,N
1517595555.9,286046998.7,N
1517595575.7,286046998.1,N
1517595595.5,286046999.2,N
1517595615.4,286046996.9,N
1517595635.2,286046999.5,N
1517595655.0,286046999.6,N
1517595656.0,286046999.6,N
1517595675.8,286046997.3,N
1517595695.6,286046996.8,N
1517595715.5,286046996.8,N
1517595735.3,286046995.8,N
1517595755.1,286046998.0,N
1517595775.9,286046997.7,N
1517595795.7,286046997.2,N
1517595815.6,286046997.7,N
1517595835.4,286046999.5,N
1517595855.2,286046996.5,N
1517595875.1,286046997.3,N
1517595876.0,286046997.3,N
1517595895.8,286046999.2,N
1517595915.6,286046996.7,N
1517595935.5,286046996.7,N
1517595955.3,286046996.5,N
1517595975.2,286046999.5,N
1517595995.9,286046998.7,N
1517596015.7,286046999.0,N
1517596035.6,286046998.2,N
1517596085.4,286047009.6,E
1517596095.4,286047010.8,N
1517596115.2,286047001.6,P
1517596135.0,286047001.0,N
1517596135.9,286047001.0,N
1517596155.8,286046995.4,N
1517596175.6,286046992.2,N
1517596195.5,286046992.1,N
1517596215.3,286046994.8,N
1517596235.1,286046994.4,N
1517596255.9,286046994.4,N
1517596275.7,286046994.3,N
1517596295.6,286046990.6,N
1517596315.4,286046990.1,N
1517596335.2,286046991.0,N
1517596355.1,286046993.0,N
1517596356.0,286046993.0,N
1517596375.8,286046990.6,N
1517596395.7,286046991.6,N
1517596415.5,286046991.4,N
1517596435.3,286046990.5,N
1517596455.2,286046992.4,N
1517596475.0,286046990.4,N
1517596475.9,286046990.4,N
1517596495.7,286046990.9,N
1517596515.6,286046990.9,N
1517596535.4,286046991.2,N
1517596555.3,286046990.5,N
1517596575.1,286046990.7,N
1517596576.0,286046990.7,N
1517596595.8,286046992.3,N
1517596615.7,286046994.3,N
1517596635.5,286046992.6,N
1517596655.4,286046991.4,Y
1517596675.2,286046996.6,P
1517596695.0,286046999.3,N
1517596695.9,286046999.3,N
1517596715.8,286047000.9,N
1517596735.6,286046998.7,N
1517596755.4,286047001.0,N
1517596775.3,286046998.3,N
1517596795.1,286046998.1,N
1517596815.9,286046996.8,N
1517596835.7,286046999.2,N
1517596855.5,286046998.4,N
1517596875.4,286046996.9,N
1517596895.2,286046996.9,N
1517596915.0,286046998.8,N
1517596915.9,286046998.8,N
1517596935.8,286046999.1,N
1517596955.6,286046999.2,N
1517596975.5,286046999.4,N
1517596995.3,286046998.8,N
1517597015.1,286046998.3,N
1517597035.9,286046996.9,N
1517597055.7,286046998.6,N
1517597075.5,286047000.8,N
1517597095.4,286046998.6,N
1517597115.2,286046996.5,N
1517597135.0,286046996.6,N
1517597136.0,286046996.6,N
1517597155.8,286046996.8,N
1517597175.6,286046997.7,N
1517597195.5,286046996.6,N
1517597215.3,286046997.0,N
1517597235.1,286046996.5,N
1517597255.9,286046999.5,N
1517597275.7,286046998.7,N
1517597295.6,286046998.7,N
1517597315.4,286046999.3,N
1517597335.2,286047001.0,N
1517597355.1,286046998.6,N
1517597356.0,286046998.6,N
1517597375.8,286046999.4,N
1517597395.6,286046996.5,N
1517597415.5,286046998.2,N
1517597435.3,286046998.7,N
1517597455.2,286046998.1,N
1517597475.9,286046998.4,N
1517597495.7,286046999.4,N
1517597515.6,286047000.9,N
1517597535.4,286046998.2,N
1517597555.2,286046999.1,N
1517597575.1,286046998.9,N
1517597576.0,286046998.9,N
1517597595.8,286047001.1,N
1517597615.7,286046998.5,N
1517597635.5,286046999.4,N
1517597655.3,286046999.3,N
1517597675.2,286046999.3,N
1517597695.0,286046999.5,N
1517597695.9,286046999.5,N
1517597715.7,286047001.1,N
1517597735.6,286047000.8,N
1517597755.4,286046998.1,N
1517597775.3,286047011.9,Y
1517597795.1,286047002.6,P
1517597796.0,286047002.6,N
1517597815.8,286047001.5,N
1517597835.7,286047002.7,N
1517597855.5,286047002.2,N
1517597875.3,286047001.6,N
1517597895.2,286047000.7,N
1517597915.0,286047000.3,N
1517597915.9,286047000.3,N
1517597935.8,286047000.9,N
1517597955.6,286047000.0,N
1517597975.4,286047002.8,N
1517597995.3,286047002.0,N
